TECHNOSAT (42829 NORAD) Tracking and Keplerian Element Data

This shows tracking and keplerian element data for the satellite.

Feedback or suggestion? Click here.




ElementValue
Catalog42829
NameTECHNOSAT
Epoch Orbit22763
Epoch Day262.0540695
Epoch Year2021
RAAN126.5551
Inclination97.455
Eccentricity0.0013762
Argument of Perigee188.6128
Mean Anonmoly171.4857
Mean Motion14.91342567
Decay Rate2.62E-06
L11 42829U 17042E 21262.05406950 .00000262 00000-0 31454-4 0 9992
L22 42829 97.4550 126.5551 0013762 188.6128 171.4857 14.91342567227630

Live tracking and technical data element details for TECHNOSAT (NORAD 42829). TECHNOSAT can be tracked NOW for your location showing map with azimuth and elevation plus other details from your city location.

Track the satellite on the map from your city or location and see movement details for azimuth, elevation, latitude, longitude, range, height, and movement on the map or in text.







IsCatalogInMostPopularTable: catalog: 42829, numindb: 729
Update: records affected: 1



GetName: 42829 TECHNOSAT

Hit Count: updated at: Fri, 24 Sep 2021 17:51:01 GMT